LOT2XK LOWW-EPWA

Flight info

Callsign LOT2XK
Flight time 0h 58m
Altitude 35000
Route KOXER Z649 XENAK M985 JAN DCT MEBAN DCT ORTEB/N0443F340 DCT KONZI DCT LOGDA
Aircraft B38M/M-SDE1FGHILORVWXY/HB1

Departure

Time 2026-05-05 16:22
Airport Vienna International Airport (LOWW)

Arrival

Time 2026-05-05 17:20
Airport Warsaw Chopin Airport (EPWA)
Time Latitude Longitude Altitude Speed Heading
2026-05-05 15:47 48.11846 16.56932 619 ft 0 kts 206°
2026-05-05 16:15 48.11852 16.56936 631 ft 4 kts 206°
2026-05-05 16:16 48.11895 16.56963 624 ft 4 kts 178°
2026-05-05 16:16 48.11921 16.56938 622 ft 1 kts 115°
2026-05-05 16:18 48.11900 16.57005 620 ft 8 kts 115°
2026-05-05 16:19 48.11869 16.57098 622 ft 12 kts 117°
2026-05-05 16:19 48.11855 16.57213 612 ft 8 kts 102°
2026-05-05 16:19 48.11864 16.57321 615 ft 6 kts 354°
2026-05-05 16:20 48.11994 16.57357 617 ft 13 kts 74°
2026-05-05 16:20 48.11983 16.57660 612 ft 17 kts 105°
2026-05-05 16:21 48.11806 16.57892 619 ft 38 kts 165°
2026-05-05 16:22 48.09227 16.58967 1326 ft 171 kts 166°
2026-05-05 16:22 48.06822 16.60062 2924 ft 188 kts 168°
2026-05-05 16:23 48.04561 16.62263 4596 ft 212 kts 134°
2026-05-05 16:23 48.03908 16.64289 5560 ft 225 kts 110°
2026-05-05 16:23 48.04195 16.69268 7009 ft 266 kts 74°
2026-05-05 16:24 48.04873 16.71955 7585 ft 287 kts 74°
2026-05-05 16:24 48.05589 16.74837 8238 ft 303 kts 74°
2026-05-05 16:24 48.07048 16.80842 10072 ft 312 kts 74°
2026-05-05 16:25 48.07793 16.83963 10743 ft 326 kts 73°
2026-05-05 16:25 48.09379 16.90616 11954 ft 353 kts 73°
2026-05-05 16:25 48.10196 16.94056 12772 ft 355 kts 72°
2026-05-05 16:26 48.11875 17.01139 14214 ft 367 kts 73°
2026-05-05 16:26 48.12614 17.08522 15532 ft 368 kts 96°
2026-05-05 16:27 48.12503 17.12374 16138 ft 373 kts 95°
2026-05-05 16:27 48.12387 17.16318 16915 ft 374 kts 96°
2026-05-05 16:27 48.12263 17.20235 17443 ft 381 kts 96°
2026-05-05 16:27 48.12135 17.24160 18048 ft 384 kts 95°
2026-05-05 16:28 48.12041 17.28160 18633 ft 387 kts 90°
2026-05-05 16:28 48.12571 17.32152 19119 ft 394 kts 72°
2026-05-05 16:28 48.13469 17.36020 19656 ft 396 kts 72°
2026-05-05 16:28 48.14381 17.39920 20185 ft 399 kts 71°
2026-05-05 16:29 48.15321 17.43871 20619 ft 404 kts 71°
2026-05-05 16:29 48.16268 17.47818 21290 ft 403 kts 71°
2026-05-05 16:29 48.17232 17.51785 21699 ft 410 kts 68°
2026-05-05 16:29 48.18690 17.55442 22322 ft 408 kts 49°
2026-05-05 16:30 48.20596 17.58624 22812 ft 413 kts 47°
2026-05-05 16:30 48.22551 17.61812 23246 ft 418 kts 46°
2026-05-05 16:30 48.24538 17.65016 23778 ft 420 kts 45°
2026-05-05 16:30 48.26541 17.68220 24169 ft 424 kts 46°
2026-05-05 16:31 48.28555 17.71431 24762 ft 423 kts 45°
2026-05-05 16:31 48.30588 17.74670 25104 ft 429 kts 45°
2026-05-05 16:31 48.32627 17.77925 25678 ft 429 kts 45°
2026-05-05 16:31 48.34691 17.81219 26051 ft 434 kts 45°
2026-05-05 16:32 48.36756 17.84524 26548 ft 435 kts 45°
2026-05-05 16:32 48.38838 17.87858 26938 ft 440 kts 45°
2026-05-05 16:32 48.40933 17.91217 27431 ft 440 kts 45°
2026-05-05 16:32 48.43027 17.94579 27813 ft 444 kts 45°
2026-05-05 16:33 48.45144 17.97983 28232 ft 446 kts 45°
2026-05-05 16:33 48.47269 18.01404 28647 ft 449 kts 45°
2026-05-05 16:33 48.49410 18.04854 29022 ft 452 kts 45°
2026-05-05 16:33 48.51553 18.08313 29441 ft 454 kts 45°
2026-05-05 16:34 48.53721 18.11817 29823 ft 457 kts 45°
2026-05-05 16:34 48.55891 18.15331 30193 ft 458 kts 45°
2026-05-05 16:34 48.58065 18.18853 30495 ft 461 kts 45°
2026-05-05 16:34 48.60248 18.22396 30856 ft 462 kts 45°
2026-05-05 16:35 48.62444 18.25965 31126 ft 465 kts 45°
2026-05-05 16:35 48.64649 18.29553 31479 ft 467 kts 45°
2026-05-05 16:35 48.66869 18.33170 31756 ft 470 kts 45°
2026-05-05 16:35 48.69089 18.36793 32127 ft 471 kts 45°
2026-05-05 16:36 48.71322 18.40441 32380 ft 474 kts 46°
2026-05-05 16:36 48.73561 18.44107 32743 ft 475 kts 46°
2026-05-05 16:36 48.75819 18.47805 32980 ft 478 kts 46°
2026-05-05 16:36 48.78058 18.51482 33466 ft 476 kts 46°
2026-05-05 16:37 48.80307 18.55177 33820 ft 477 kts 46°
2026-05-05 16:37 48.82549 18.58867 34237 ft 475 kts 46°
2026-05-05 16:37 48.84788 18.62556 34530 ft 475 kts 46°
2026-05-05 16:37 48.87024 18.66247 34854 ft 475 kts 46°
2026-05-05 16:38 48.91489 18.73631 34880 ft 472 kts 46°
2026-05-05 16:38 48.95909 18.80964 34862 ft 471 kts 46°
2026-05-05 16:39 49.00303 18.88271 34874 ft 471 kts 46°
2026-05-05 16:39 49.04722 18.95643 34879 ft 471 kts 46°
2026-05-05 16:40 49.09135 19.03024 34882 ft 471 kts 46°
2026-05-05 16:40 49.13970 19.09641 34866 ft 466 kts 26°
2026-05-05 16:41 49.19892 19.13666 34862 ft 467 kts 23°
2026-05-05 16:41 49.25785 19.17839 34899 ft 468 kts 24°
2026-05-05 16:42 49.31689 19.22056 34902 ft 467 kts 23°
2026-05-05 16:42 49.37569 19.26266 34891 ft 468 kts 23°
2026-05-05 16:43 49.43466 19.30500 34883 ft 469 kts 23°
2026-05-05 16:43 49.49371 19.34753 34879 ft 469 kts 23°
2026-05-05 16:44 49.55261 19.39005 34876 ft 468 kts 23°
2026-05-05 16:44 49.61138 19.43261 34873 ft 468 kts 23°
2026-05-05 16:45 49.67028 19.47536 34875 ft 467 kts 22°
2026-05-05 16:45 49.72908 19.51816 34875 ft 467 kts 22°
2026-05-05 16:46 49.78782 19.56102 34865 ft 466 kts 23°
2026-05-05 16:46 49.84661 19.60403 34868 ft 468 kts 22°
2026-05-05 16:47 49.90479 19.64671 34867 ft 468 kts 24°
2026-05-05 16:47 49.96339 19.68982 34811 ft 465 kts 24°
2026-05-05 16:48 50.02171 19.73284 34801 ft 466 kts 24°
2026-05-05 16:48 50.08019 19.77609 34801 ft 466 kts 24°
2026-05-05 16:49 50.13864 19.81945 34805 ft 465 kts 24°
2026-05-05 16:49 50.19708 19.86291 34812 ft 465 kts 24°
2026-05-05 16:50 50.24557 19.89907 34812 ft 465 kts 24°
2026-05-05 16:50 50.30395 19.94271 34819 ft 465 kts 24°
2026-05-05 16:51 50.36232 19.98645 34834 ft 465 kts 24°
2026-05-05 16:51 50.42016 20.02991 34320 ft 456 kts 24°
2026-05-05 16:52 50.44875 20.05144 33660 ft 456 kts 24°
2026-05-05 16:52 50.47715 20.07286 33022 ft 454 kts 24°
2026-05-05 16:52 50.50556 20.09431 32489 ft 450 kts 24°
2026-05-05 16:52 50.53360 20.11550 32040 ft 445 kts 24°
2026-05-05 16:53 50.56145 20.13658 31538 ft 441 kts 24°
2026-05-05 16:53 50.58905 20.15750 31027 ft 439 kts 24°
2026-05-05 16:53 50.61650 20.17834 30519 ft 436 kts 24°
2026-05-05 16:53 50.64377 20.19906 29995 ft 435 kts 24°
2026-05-05 16:54 50.67092 20.21973 29433 ft 433 kts 24°
2026-05-05 16:54 50.69778 20.24020 28911 ft 429 kts 24°
2026-05-05 16:54 50.72452 20.26060 28426 ft 426 kts 24°
2026-05-05 16:54 50.75113 20.28092 27955 ft 422 kts 24°
2026-05-05 16:55 50.77742 20.30104 27467 ft 419 kts 24°
2026-05-05 16:55 50.80357 20.32106 26991 ft 416 kts 24°
2026-05-05 16:55 50.82959 20.34101 26533 ft 413 kts 24°
2026-05-05 16:55 50.85534 20.36078 26082 ft 411 kts 24°
2026-05-05 16:56 50.88093 20.38046 25621 ft 408 kts 24°
2026-05-05 16:56 50.90635 20.40002 25170 ft 406 kts 24°
2026-05-05 16:56 50.93159 20.41948 24741 ft 403 kts 24°
2026-05-05 16:56 50.95681 20.43893 24311 ft 401 kts 24°
2026-05-05 16:57 50.98177 20.45821 23885 ft 399 kts 24°
2026-05-05 16:57 51.00672 20.47751 23465 ft 397 kts 24°
2026-05-05 16:57 51.03111 20.49640 22986 ft 395 kts 24°
2026-05-05 16:57 51.05608 20.51575 22543 ft 392 kts 24°
2026-05-05 16:58 51.08042 20.53465 22134 ft 389 kts 24°
2026-05-05 16:58 51.10431 20.55321 21742 ft 386 kts 24°
2026-05-05 16:58 51.12834 20.57191 21345 ft 383 kts 24°
2026-05-05 16:58 51.15211 20.59042 20946 ft 380 kts 24°
2026-05-05 16:59 51.17581 20.60890 20563 ft 378 kts 24°
2026-05-05 16:59 51.19937 20.62729 20168 ft 376 kts 24°
2026-05-05 16:59 51.22273 20.64556 19786 ft 374 kts 24°
2026-05-05 16:59 51.24609 20.66383 19394 ft 373 kts 24°
2026-05-05 17:00 51.26969 20.68232 19003 ft 372 kts 24°
2026-05-05 17:00 51.29301 20.69852 18497 ft 371 kts 14°
2026-05-05 17:00 51.31772 20.71072 18067 ft 372 kts 15°
2026-05-05 17:00 51.34230 20.72360 17543 ft 373 kts 15°
2026-05-05 17:01 51.36693 20.73679 17022 ft 375 kts 16°
2026-05-05 17:01 51.39159 20.75019 16487 ft 376 kts 16°
2026-05-05 17:01 51.41646 20.76378 15985 ft 377 kts 16°
2026-05-05 17:01 51.44126 20.77740 15462 ft 378 kts 16°
2026-05-05 17:02 51.46632 20.79118 14940 ft 380 kts 16°
2026-05-05 17:02 51.49135 20.80478 14396 ft 381 kts 15°
2026-05-05 17:02 51.51656 20.81831 13851 ft 383 kts 15°
2026-05-05 17:02 51.54179 20.83191 13320 ft 383 kts 16°
2026-05-05 17:03 51.56714 20.84560 12763 ft 383 kts 16°
2026-05-05 17:03 51.59242 20.85926 12235 ft 383 kts 16°
2026-05-05 17:03 51.61739 20.87276 11703 ft 376 kts 16°
2026-05-05 17:03 51.64174 20.88596 11199 ft 364 kts 16°
2026-05-05 17:04 51.66542 20.89880 10706 ft 353 kts 16°
2026-05-05 17:04 51.68840 20.91116 10221 ft 343 kts 15°
2026-05-05 17:04 51.71085 20.92289 9718 ft 336 kts 15°
2026-05-05 17:04 51.73287 20.93443 9228 ft 328 kts 15°
2026-05-05 17:05 51.75427 20.94569 8776 ft 319 kts 16°
2026-05-05 17:05 51.77512 20.95675 8320 ft 313 kts 18°
2026-05-05 17:05 51.79531 20.96888 7842 ft 307 kts 18°
2026-05-05 17:05 51.81515 20.98089 7450 ft 300 kts 18°
2026-05-05 17:06 51.83435 20.99244 7167 ft 288 kts 18°
2026-05-05 17:06 51.85264 21.00343 6927 ft 276 kts 18°
2026-05-05 17:06 51.87029 21.01403 6607 ft 267 kts 18°
2026-05-05 17:06 51.88749 21.02436 6257 ft 258 kts 18°
2026-05-05 17:07 51.90399 21.03427 5871 ft 250 kts 18°
2026-05-05 17:07 51.92009 21.04394 5482 ft 243 kts 19°
2026-05-05 17:07 51.93577 21.05338 5086 ft 238 kts 19°
2026-05-05 17:07 51.95116 21.06266 4715 ft 235 kts 19°
2026-05-05 17:08 51.96640 21.07184 4335 ft 233 kts 19°
2026-05-05 17:08 51.98146 21.08092 4050 ft 226 kts 20°
2026-05-05 17:08 51.99615 21.08979 3973 ft 225 kts 20°
2026-05-05 17:08 52.01130 21.09510 3945 ft 222 kts 352°
2026-05-05 17:09 52.02562 21.08782 4007 ft 217 kts 330°
2026-05-05 17:09 52.03924 21.07699 4035 ft 218 kts 328°
2026-05-05 17:09 52.05267 21.06563 4017 ft 217 kts 328°
2026-05-05 17:09 52.06599 21.05407 4016 ft 217 kts 327°
2026-05-05 17:10 52.07920 21.04257 4005 ft 215 kts 327°
2026-05-05 17:10 52.09215 21.03130 3992 ft 214 kts 327°
2026-05-05 17:10 52.10529 21.01985 3996 ft 214 kts 327°
2026-05-05 17:10 52.11928 21.01138 3961 ft 220 kts 352°
2026-05-05 17:11 52.13445 21.01615 3945 ft 229 kts 27°
2026-05-05 17:11 52.14601 21.03371 3987 ft 231 kts 62°
2026-05-05 17:11 52.15015 21.05832 3998 ft 225 kts 96°
2026-05-05 17:11 52.14665 21.08274 4026 ft 221 kts 116°
2026-05-05 17:12 52.13891 21.10367 4002 ft 214 kts 134°
2026-05-05 17:12 52.12917 21.12198 3996 ft 214 kts 136°
2026-05-05 17:12 52.11922 21.14013 3995 ft 214 kts 137°
2026-05-05 17:12 52.10917 21.15843 3990 ft 214 kts 137°
2026-05-05 17:13 52.09889 21.17579 3870 ft 211 kts 145°
2026-05-05 17:13 52.08720 21.18924 3670 ft 206 kts 151°
2026-05-05 17:13 52.07517 21.20165 3459 ft 204 kts 153°
2026-05-05 17:13 52.06313 21.21357 3236 ft 202 kts 153°
2026-05-05 17:14 52.05061 21.22303 3035 ft 195 kts 175°
2026-05-05 17:14 52.03775 21.21841 2987 ft 192 kts 205°
2026-05-05 17:14 52.02574 21.20840 3039 ft 196 kts 206°
2026-05-05 17:14 52.01369 21.19799 3019 ft 196 kts 207°
2026-05-05 17:15 52.00255 21.18546 2972 ft 198 kts 228°
2026-05-05 17:15 51.99865 21.16428 2937 ft 206 kts 273°
2026-05-05 17:15 52.00430 21.14249 3016 ft 216 kts 296°
2026-05-05 17:15 52.01216 21.12159 3049 ft 217 kts 297°
2026-05-05 17:16 52.02013 21.10087 3019 ft 218 kts 302°
2026-05-05 17:16 52.03109 21.08435 2972 ft 212 kts 324°
2026-05-05 17:16 52.04381 21.07306 2775 ft 205 kts 329°
2026-05-05 17:16 52.05630 21.06253 2494 ft 202 kts 328°
2026-05-05 17:17 52.06833 21.05208 2279 ft 190 kts 327°
2026-05-05 17:17 52.07976 21.04209 2026 ft 184 kts 327°
2026-05-05 17:17 52.09073 21.03255 1821 ft 170 kts 327°
2026-05-05 17:17 52.10088 21.02369 1601 ft 163 kts 327°
2026-05-05 17:18 52.11074 21.01511 1364 ft 160 kts 328°
2026-05-05 17:18 52.12057 21.00653 1153 ft 158 kts 329°
2026-05-05 17:18 52.13012 20.99817 943 ft 154 kts 329°
2026-05-05 17:18 52.13944 20.98990 694 ft 153 kts 329°
2026-05-05 17:19 52.14897 20.98173 517 ft 155 kts 330°
2026-05-05 17:19 52.15837 20.97352 357 ft 147 kts 330°
2026-05-05 17:19 52.16630 20.96658 346 ft 102 kts 332°
2026-05-05 17:19 52.17120 20.96233 337 ft 63 kts 332°
2026-05-05 17:20 52.17339 20.96066 340 ft 25 kts 349°
2026-05-05 17:20 52.17459 20.96062 345 ft 16 kts
2026-05-05 17:20 52.17544 20.96065 351 ft 11 kts 10°
2026-05-05 17:20 52.17583 20.96144 347 ft 9 kts 85°
2026-05-05 17:21 52.17558 20.96249 347 ft 11 kts 145°
2026-05-05 17:21 52.17482 20.96317 344 ft 14 kts 151°
2026-05-05 17:21 52.17445 20.96436 341 ft 14 kts 65°
2026-05-05 17:22 52.17432 20.96600 341 ft 13 kts 152°
2026-05-05 17:22 52.17330 20.96689 339 ft 18 kts 152°
2026-05-05 17:22 52.17218 20.96786 341 ft 18 kts 152°
2026-05-05 17:22 52.17102 20.96889 339 ft 19 kts 152°
2026-05-05 17:23 52.17023 20.96968 341 ft 7 kts 119°
2026-05-05 17:23 52.17024 20.96996 341 ft 2 kts 70°
2026-05-05 17:23 52.17034 20.97039 338 ft 5 kts 70°
2026-05-05 17:23 52.17046 20.97093 339 ft 1 kts 70°
2026-05-05 17:24 52.17047 20.97101 340 ft 0 kts 70°